Ephrata, WA

8:42 AM PDT on April 21, 2018 (GMT -0700)
Ephrata Municipal

Weather History for KEPH - April, 2013

Change the Weather History Date:

Thursday, April 25, 2013

  Actual Average Record
Temperature  
Mean Temperature 62 °F 53 °F  
Max Temperature 76 °F 66 °F 85 °F (1952)
Min Temperature 48 °F 40 °F 28 °F (1955)
Degree Days  
Heating Degree Days 3 12  
Month to date heating degree days 381 381  
Since 1 July heating degree days 5275 5638  
Cooling Degree Days 0 0  
Month to date cooling degree days 0 0  
Year to date cooling degree days 0 0  
Growing Degree Days 12 (Base 50)    
Moisture  
Dew Point 30 °F    
Average Humidity 32    
Maximum Humidity 42    
Minimum Humidity 21    
Precipitation  
Precipitation 0.00 in 0.01 in 0.29 in (1989)
Month to date precipitation 0.63 0.41  
Year to date precipitation 1.52 2.74  
Sea Level Pressure  
Sea Level Pressure 29.94 in    
Wind  
Wind Speed 9 mph (WNW)    
Max Wind Speed 22 mph    
Max Gust Speed 28 mph    
Visibility 10 miles    
Events      
T = Trace of Precipitation, MM = Missing Value Source: NWS Daily Summary

Daily Weather History Graph

Daily Weather History Graph

Search for Another Location

Airport or City:

Astronomy

Apr. 25, 2013 Rise Set
Actual Time 5:51 AM PDT 8:01 PM PDT
Civil Twilight 5:17 AM PDT 8:35 PM PDT
Nautical Twilight 4:36 AM PDT 9:16 PM PDT
Astronomical Twilight 3:50 AM PDT 10:03 PM PDT
Moon 8:23 PM PDT (4/25) 5:37 AM PDT (4/25)
Length of Visible Light 15h 17m
Length of Day
14h 10m
Full, 100% of the Moon is Illuminated
Apr 25
Full
Apr 25
Full
May 2
Last Quarter
May 9
New
May 17
First Quarter

Hourly Weather History & Observations

Time (PDT) Temp. Dew Point Humidity Pressure Visibility Wind Dir Wind Speed Gust Speed Precip Events Conditions
12:53 AM 55.9 °F 27.0 °F 33% 29.92 in 10.0 mi NW 10.4 mph 17.3 mph N/A   Clear
1:53 AM 54.0 °F 27.0 °F 35% 29.90 in 10.0 mi Calm Calm - N/A   Clear
2:53 AM 52.0 °F 27.0 °F 38% 29.91 in 10.0 mi North 9.2 mph - N/A   Clear
3:53 AM 53.1 °F 26.1 °F 35% 29.91 in 10.0 mi NNW 12.7 mph - N/A   Clear
4:53 AM 53.1 °F 26.1 °F 35% 29.92 in 10.0 mi North 8.1 mph - N/A   Clear
5:53 AM 48.9 °F 26.1 °F 41% 29.93 in 10.0 mi NNW 5.8 mph - N/A   Clear
6:53 AM 51.1 °F 28.0 °F 41% 29.94 in 10.0 mi NW 5.8 mph - N/A   Clear
7:53 AM 57.0 °F 28.0 °F 33% 29.96 in 10.0 mi NW 8.1 mph - N/A   Clear
8:53 AM 60.1 °F 28.9 °F 31% 29.95 in 10.0 mi West 6.9 mph - N/A   Clear
9:53 AM 63.0 °F 30.0 °F 29% 29.96 in 10.0 mi SW 6.9 mph - N/A   Clear
10:53 AM 64.9 °F 30.0 °F 27% 29.96 in 10.0 mi SW 5.8 mph - N/A   Clear
11:53 AM 68.0 °F 30.9 °F 25% 29.96 in 10.0 mi SW 6.9 mph - N/A   Clear
12:53 PM 70.0 °F 32.0 °F 25% 29.94 in 10.0 mi Calm Calm - N/A   Clear
1:53 PM 73.0 °F 32.0 °F 22% 29.94 in 10.0 mi WSW 11.5 mph - N/A   Clear
2:53 PM 75.0 °F 34.0 °F 22% 29.93 in 10.0 mi WSW 9.2 mph 16.1 mph N/A   Clear
3:53 PM 75.0 °F 33.1 °F 22% 29.92 in 10.0 mi WSW 15.0 mph 19.6 mph N/A   Clear
4:53 PM 75.0 °F 34.0 °F 22% 29.91 in 10.0 mi SSW 10.4 mph 18.4 mph N/A   Clear
5:53 PM 75.9 °F 33.1 °F 21% 29.92 in 10.0 mi West 15.0 mph - N/A   Clear
6:53 PM 72.0 °F 33.1 °F 24% 29.93 in 10.0 mi NW 13.8 mph - N/A   Clear
7:53 PM 68.0 °F 33.1 °F 27% 29.95 in 10.0 mi NW 16.1 mph - N/A   Clear
8:53 PM 66.0 °F 33.1 °F 29% 29.97 in 10.0 mi WNW 12.7 mph 24.2 mph N/A   Clear
9:53 PM 64.0 °F 33.1 °F 31% 29.98 in 10.0 mi West 9.2 mph 23.0 mph N/A   Clear
10:53 PM 61.0 °F 34.0 °F 36% 29.99 in 10.0 mi WNW 10.4 mph - N/A   Clear